Weather History for KFIG - October, 2013

Change the Weather History Date:

Thursday, October 17, 2013

  Actual Average (KDUJ) Record (KDUJ)
Temperature  
Mean Temperature 54 °F 49 °F  
Max Temperature 63 °F 58 °F 76 °F (1963)
Min Temperature 46 °F 39 °F 27 °F (1970)
Degree Days  
Heating Degree Days 11 16  
Month to date heating degree days 237  
Since 1 July heating degree days 483  
Cooling Degree Days 0 0  
Month to date cooling degree days 0  
Year to date cooling degree days 360  
Growing Degree Days 4 (Base 50)    
Moisture  
Dew Point 52 °F    
Average Humidity 94    
Maximum Humidity 100    
Minimum Humidity 67    
Precipitation  
Precipitation 0.58 in 0.10 in 1.07 in (1975)
Month to date precipitation 1.74  
Sea Level Pressure  
Sea Level Pressure 29.84 in    
Wind  
Wind Speed 4 mph (WSW)    
Max Wind Speed 22 mph    
Max Gust Speed 31 mph    
Visibility 6 miles    
Events Fog , Rain , Thunderstorm    
T = Trace of Precipitation, MM = Missing Value Source: NWS Daily Summary

Daily Weather History Graph

Daily Weather History Graph

Search for Another Location

Airport or City:

Trip Planner

Search our weather history database for the weather conditions in past years. The results will help you decide how hot, cold, wet, or windy it might be!

Date:

Astronomy

Oct. 17, 2013 Rise Set
Actual Time 7:27 AM EDT 6:29 PM EDT
Civil Twilight 6:59 AM EDT 6:57 PM EDT
Nautical Twilight 6:27 AM EDT 7:29 PM EDT
Astronomical Twilight 5:55 AM EDT 8:01 PM EDT
Moon 5:43 PM EDT (10/17) 5:57 AM EDT (10/17)
Length of Visible Light 11h 57m
Length of Day
11h 02m
Waxing Gibbous, 98% of the Moon is Illuminated
Oct 17
Waxing Gibbous
Oct 18
Full
Oct 26
Last Quarter
Nov 3
New
Nov 10
First Quarter

Hourly Weather History & Observations

Time (EDT) Temp. Windchill Dew Point Humidity Pressure Visibility Wind Dir Wind Speed Gust Speed Precip Events Conditions
12:24 AM 60.8 °F - 60.8 °F 100% 29.88 in 8.0 mi SW 6.9 mph - 0.01 in Rain Light Rain
12:36 AM 60.8 °F - 60.8 °F 100% 29.88 in 8.0 mi SW 4.6 mph - 0.01 in Rain Light Rain
12:46 AM 60.8 °F - 60.8 °F 100% 29.89 in 4.0 mi West 6.9 mph - 0.03 in Rain Heavy Rain
12:54 AM 60.1 °F - 60.1 °F 100% 29.88 in 5.0 mi WNW 9.2 mph - 0.04 in Rain Light Rain
1:38 AM 55.4 °F - 53.6 °F 94% 29.91 in 10.0 mi WNW 9.2 mph - 0.01 in   Overcast
1:54 AM 55.0 °F - 51.1 °F 86% 29.91 in 10.0 mi WNW 8.1 mph - 0.01 in   Overcast
2:25 AM 53.6 °F - 50.0 °F 88% 29.92 in 9.0 mi Calm Calm - 0.01 in Rain Light Rain
2:54 AM 54.0 °F - 50.0 °F 86% 29.91 in 10.0 mi Calm Calm - 0.01 in   Overcast
3:26 AM 53.6 °F - 51.8 °F 94% 29.91 in 10.0 mi Calm Calm - N/A   Overcast
3:54 AM 54.0 °F - 52.0 °F 93% 29.91 in 10.0 mi Calm Calm - N/A   Overcast
4:06 AM 53.6 °F - 51.8 °F 94% 29.91 in 10.0 mi Calm Calm - N/A   Overcast
4:54 AM 54.0 °F - 51.1 °F 90% 29.91 in 10.0 mi Calm Calm - N/A   Overcast
5:41 AM 53.6 °F - 51.8 °F 94% 29.92 in 10.0 mi Calm Calm - N/A   Mostly Cloudy
5:54 AM 52.0 °F - 51.1 °F 97% 29.92 in 10.0 mi Calm Calm - N/A   Mostly Cloudy
6:54 AM 48.9 °F - 48.9 °F 100% 29.92 in 1.2 mi Calm Calm - N/A   Clear
7:01 AM 48.2 °F - 48.2 °F 100% 29.91 in 0.2 mi Calm Calm - N/A Fog Fog
7:11 AM 46.4 °F - 46.4 °F 100% 29.91 in 0.5 mi Calm Calm - N/A Fog Fog
7:19 AM 48.2 °F - 48.2 °F 100% 29.91 in 1.2 mi Calm Calm - N/A   Partly Cloudy
7:23 AM 48.2 °F - 48.2 °F 100% 29.92 in 3.0 mi Calm Calm - N/A   Partly Cloudy
7:32 AM 48.2 °F - 48.2 °F 100% 29.91 in 1.0 mi Calm Calm - N/A   Mist
7:35 AM 46.4 °F 45.2 °F 46.4 °F 100% 29.91 in 0.2 mi North 3.5 mph - N/A Fog Fog
7:54 AM 46.9 °F - 46.9 °F 100% 29.92 in 0.2 mi NNW 4.6 mph - N/A Fog Fog
8:07 AM 46.4 °F - 46.4 °F 100% 29.92 in 1.0 mi Calm Calm - N/A   Mist
8:09 AM 46.4 °F - 46.4 °F 100% 29.92 in 2.5 mi Calm Calm - N/A   Scattered Clouds
8:22 AM 48.2 °F - 48.2 °F 100% 29.93 in 0.8 mi South 3.5 mph - N/A   Mist
8:30 AM 48.2 °F - 48.2 °F 100% 29.93 in 0.2 mi Calm Calm - N/A Fog Fog
8:54 AM 48.9 °F - 48.9 °F 100% 29.94 in 0.2 mi Calm Calm - N/A Fog Fog
9:24 AM 51.8 °F - 51.8 °F 100% 29.94 in 0.5 mi Calm Calm - N/A Fog Fog
9:27 AM 51.8 °F - 51.8 °F 100% 29.94 in 2.5 mi Calm Calm - N/A   Overcast
9:34 AM 51.8 °F - 51.8 °F 100% 29.94 in 6.0 mi Calm Calm - N/A   Overcast
9:54 AM 52.0 °F - 52.0 °F 100% 29.93 in 10.0 mi Calm Calm - N/A   Mostly Cloudy
10:03 AM 53.6 °F - 51.8 °F 94% 29.92 in 10.0 mi Calm Calm - N/A   Scattered Clouds
10:54 AM 57.0 °F - 48.9 °F 74% 29.91 in 10.0 mi Calm Calm - N/A   Partly Cloudy
11:54 AM 59.0 °F - 50.0 °F 72% 29.89 in 10.0 mi Calm Calm - N/A   Overcast
12:54 PM 60.1 °F - 50.0 °F 69% 29.87 in 10.0 mi Calm Calm - N/A   Overcast
1:27 PM 60.8 °F - 51.8 °F 72% 29.85 in 10.0 mi Calm Calm - 0.00 in Rain Light Rain
1:51 PM 62.6 °F - 51.8 °F 68% 29.83 in 10.0 mi Calm Calm - 0.00 in   Overcast
1:54 PM 62.1 °F - 51.1 °F 67% 29.82 in 10.0 mi Calm Calm - 0.00 in   Overcast
2:54 PM 62.1 °F - 53.1 °F 72% 29.79 in 10.0 mi NNE 3.5 mph - 0.00 in Rain Light Rain
3:07 PM 62.6 °F - 51.8 °F 68% 29.78 in 10.0 mi Calm Calm - 0.00 in Rain Light Rain
3:54 PM 60.1 °F - 55.9 °F 86% 29.75 in 9.0 mi SE 3.5 mph - 0.01 in Rain Light Rain
4:20 PM 57.2 °F - 57.2 °F 100% 29.73 in 5.0 mi SE 5.8 mph - 0.01 in Rain Light Rain
4:35 PM 57.2 °F - 57.2 °F 100% 29.71 in 1.8 mi SE 5.8 mph - 0.03 in Rain Rain
4:51 PM 57.2 °F - 57.2 °F 100% 29.69 in 2.5 mi Variable 3.5 mph - 0.07 in Rain Light Rain
4:54 PM 57.0 °F - 57.0 °F 100% 29.69 in 3.0 mi East 4.6 mph - 0.07 in Rain Light Rain
5:04 PM 57.2 °F - 57.2 °F 100% 29.68 in 9.0 mi Variable 6.9 mph - 0.00 in   Overcast
5:14 PM 57.2 °F - 57.2 °F 100% 29.68 in 9.0 mi Variable 3.5 mph - 0.00 in   Overcast
5:21 PM 57.2 °F - 57.2 °F 100% 29.67 in 10.0 mi ESE 4.6 mph - 0.00 in   Overcast
5:45 PM 57.2 °F - 57.2 °F 100% 29.66 in 6.0 mi Calm Calm - 0.01 in Rain , Thunderstorm Heavy Thunderstorms and Rain
5:54 PM 57.0 °F - 57.0 °F 100% 29.64 in 3.0 mi Variable 3.5 mph - 0.07 in Rain , Thunderstorm Heavy Thunderstorms and Rain
6:11 PM 57.2 °F - 57.2 °F 100% 29.64 in 6.0 mi Calm Calm - 0.02 in Rain Light Rain
6:24 PM 57.2 °F - 57.2 °F 100% 29.68 in 1.8 mi West 16.1 mph 25.3 mph 0.21 in Rain Heavy Rain
6:36 PM 55.4 °F - 55.4 °F 100% 29.69 in 3.0 mi NW 20.7 mph 29.9 mph 0.30 in Rain Rain
6:45 PM 55.4 °F - 53.6 °F 94% 29.70 in 6.0 mi NW 21.9 mph 31.1 mph 0.32 in Rain Rain
6:54 PM 54.0 °F - 52.0 °F 93% 29.73 in 6.0 mi WNW 15.0 mph 28.8 mph 0.34 in Rain Rain
7:54 PM 52.0 °F - 51.1 °F 97% 29.75 in 10.0 mi SSW 3.5 mph - 0.02 in Rain Light Rain
8:52 PM 51.8 °F - 51.8 °F 100% 29.78 in 10.0 mi SW 8.1 mph - 0.00 in   Overcast
8:54 PM 52.0 °F - 52.0 °F 100% 29.79 in 10.0 mi SW 9.2 mph - 0.00 in   Overcast
9:07 PM 51.8 °F - 51.8 °F 100% 29.80 in 9.0 mi WSW 11.5 mph - N/A   Overcast
9:54 PM 50.0 °F - 48.9 °F 96% 29.83 in 10.0 mi West 11.5 mph 23.0 mph 0.01 in Rain Light Rain
10:27 PM 48.2 °F - 46.4 °F 93% 29.84 in 10.0 mi West 9.2 mph - 0.00 in   Scattered Clouds
10:42 PM 48.2 °F - 46.4 °F 93% 29.84 in 10.0 mi WSW 8.1 mph - 0.00 in   Mostly Cloudy
10:54 PM 48.9 °F - 46.0 °F 90% 29.85 in 10.0 mi WSW 9.2 mph 17.3 mph 0.00 in   Overcast
11:54 PM 48.0 °F - 46.9 °F 96% 29.84 in 7.0 mi WSW 10.4 mph - 0.00 in Rain Light Rain